DW0148 Weather Reports


time (UTC)temp
C
wind
direction
speed
KPH
gust
KPH
rain 1hr
cm
rain 24hr
cm
rain mn
cm
humidity
%
barometer
mb
20260905230403 24 215 0.0 1.6 0.00 1.68 1.68 95 1009.8
20260905225902 24 224 1.6 1.6 0.00 1.68 1.68 95 1009.8
20260905225330 24 82 0.0 0.0 0.00 1.68 1.68 95 1009.8
20260905224829 25 82 0.0 0.0 0.00 1.68 1.68 95 1009.5
20260905224329 25 82 0.0 0.0 0.00 1.68 1.68 95 1009.8
20260905223826 25 82 0.0 0.0 0.00 1.68 1.68 95 1009.8
20260905223254 24 82 0.0 1.6 0.00 1.68 1.68 95 1009.8
20260905222752 24 82 0.0 1.6 0.00 1.68 1.68 95 1009.8
20260905222249 24 82 0.0 1.6 0.00 1.68 1.68 95 1009.8
20260905221748 24 82 0.0 0.0 0.00 1.68 1.68 95 1009.8
20260905221216 24 77 0.0 0.0 0.00 1.68 1.68 95 1009.8
20260905220715 24 77 0.0 0.0 0.00 1.68 1.68 95 1009.8
20260905220214 24 76 0.0 0.0 0.00 1.68 1.68 95 1009.8
20260905215712 24 77 0.0 0.0 0.00 1.68 1.68 95 1009.8
20260905215108 24 76 0.0 0.0 0.00 1.68 1.68 95 1009.8
20260905214606 24 77 0.0 0.0 0.00 1.68 1.68 95 1009.8
20260905214104 24 76 0.0 0.0 0.00 1.68 1.68 95 1010.2
20260905213603 24 77 0.0 0.0 0.00 1.68 1.68 95 1010.2
20260905213102 24 76 0.0 0.0 0.00 1.68 1.68 95 1009.8
20260905212530 23 77 0.0 1.6 0.00 1.68 1.68 95 1009.8
20260905212029 23 77 0.0 1.6 0.00 1.68 1.68 95 1010.2
20260905211528 22 77 0.0 1.6 0.00 1.68 1.68 95 1009.8
20260905211028 22 77 1.6 1.6 0.00 1.68 1.68 95 1010.2
20260905210526 22 68 0.0 0.0 0.00 1.68 1.68 95 1010.2
20260905210026 22 68 0.0 0.0 0.00 1.68 1.68 95 1010.5
20260905205525 22 68 0.0 1.6 0.00 1.68 1.68 95 1010.8
20260905205024 22 68 0.0 1.6 0.00 1.68 1.68 95 1010.8
20260905204523 22 68 0.0 1.6 0.00 1.68 1.68 95 1010.8
20260905204021 22 68 1.6 1.6 0.00 1.68 1.68 95 1010.5
20260905203449 22 65 0.0 1.6 0.00 1.68 1.68 95 1010.8
20260905202916 22 65 0.0 1.6 0.00 1.68 1.68 95 1010.8
20260905202415 22 62 0.0 1.6 0.00 1.68 1.68 95 1011.2
20260905201913 22 62 0.0 1.6 0.00 1.68 1.68 95 1011.2
20260905201413 22 63 0.0 1.6 0.00 1.68 1.68 95 1011.2
20260905200910 22 63 0.0 1.6 0.00 1.68 1.68 95 1011.2
20260905200408 22 78 0.0 0.0 0.00 1.68 1.68 95 1011.5
20260905195805 22 79 0.0 0.0 0.03 1.68 1.68 95 1011.2
20260905195306 22 56 0.0 0.0 0.08 1.68 1.68 95 1011.2
20260905194803 22 57 0.0 0.0 0.23 1.68 1.68 95 1011.2
20260905194301 22 57 0.0 0.0 0.46 1.68 1.68 95 1011.2
20260905193801 22 57 0.0 1.6 0.81 1.68 1.68 95 1010.8
20260905193227 22 250 0.0 1.6 1.07 1.68 1.68 95 1010.8
20260905192726 22 226 0.0 1.6 1.42 1.68 1.68 95 1011.2
20260905192225 22 68 0.0 1.6 1.68 1.68 1.68 95 1011.2
20260905191724 22 250 0.0 0.0 1.68 1.68 1.68 95 1011.2
20260905191222 22 250 0.0 1.6 1.68 1.68 1.68 95 1011.2
20260905190721 22 226 0.0 3.2 1.68 1.68 1.68 95 1011.2
20260905190219 22 225 0.0 3.2 1.68 1.68 1.68 95 1011.5
20260905185718 22 215 0.0 4.8 1.65 1.65 1.65 94 1011.9
20260905185146 22 228 1.6 4.8 1.55 1.55 1.55 93 1012.2
20260905184645 23 84 1.6 6.4 1.40 1.40 1.40 91 1012.5
20260905184144 23 198 1.6 16.1 1.12 1.12 1.12 89 1013.5
20260905183643 25 73 3.2 16.1 0.81 0.81 0.81 86 1013.5
20260905183142 26 187 3.2 17.7 0.51 0.51 0.51 82 1013.2
20260905182609 28 12 4.8 17.7 0.20 0.20 0.20 78 1013.2
20260905182108 30 326 1.6 16.1 0.00 0.00 0.00 75 1012.9
20260905181607 31 51 9.7 14.5 0.00 0.00 0.00 77 1011.9
20260905181106 31 245 0.0 0.0 0.00 0.00 0.00 74 1011.2
20260905180502 32 245 0.0 0.0 0.00 0.00 0.00 74 1010.8
20260905180001 32 245 0.0 0.0 0.00 0.00 0.00 72 1010.8
20260905175459 32 245 0.0 0.0 0.00 0.00 0.00 71 1011.2
20260905174958 32 245 0.0 0.0 0.00 0.00 0.00 70 1010.5
20260905174354 33 245 0.0 0.0 0.00 0.00 0.00 68 1010.8
20260905173853 33 207 0.0 0.0 0.00 0.00 0.00 67 1010.8
20260905173353 33 233 0.0 0.0 0.00 0.00 0.00 65 1011.2
20260905172851 33 200 0.0 0.0 0.00 0.00 0.00 65 1011.2
20260905172350 33 200 0.0 0.0 0.00 0.00 0.00 65 1011.2
20260905171817 33 167 0.0 0.0 0.00 0.00 0.00 67 1011.2
20260905171316 33 186 0.0 0.0 0.00 0.00 0.00 68 1011.2
20260905170815 33 223 0.0 0.0 0.00 0.00 0.00 70 1011.5
20260905170314 32 250 0.0 0.0 0.00 0.00 0.00 70 1011.5
20260905165812 32 253 0.0 0.0 0.00 0.00 0.00 71 1011.9
20260905165311 32 211 0.0 0.0 0.00 0.00 0.00 70 1011.9
20260905164810 32 162 0.0 0.0 0.00 0.00 0.00 69 1011.9
20260905164307 31 149 0.0 0.0 0.00 0.00 0.00 69 1011.9
20260905163806 31 63 0.0 0.0 0.00 0.00 0.00 73 1012.2
20260905163305 31 73 0.0 0.0 0.00 0.00 0.00 72 1012.2
20260905162801 31 221 0.0 0.0 0.00 0.00 0.00 74 1012.2
20260905162258 31 214 0.0 0.0 0.00 0.00 0.00 73 1012.2
20260905161725 31 214 0.0 0.0 0.00 0.00 0.00 72 1012.2
20260905161224 31 218 0.0 0.0 0.00 0.00 0.00 73 1012.2
20260905160723 31 229 0.0 0.0 0.00 0.00 0.00 73 1012.2
20260905160222 32 219 0.0 0.0 0.00 0.00 0.00 74 1012.2
20260905155721 31 219 0.0 0.0 0.00 0.00 0.00 78 1012.2
20260905155220 31 226 0.0 0.0 0.00 0.00 0.00 76 1012.2
20260905154718 30 235 0.0 0.0 0.00 0.00 0.00 79 1012.2
20260905154217 30 145 0.0 0.0 0.00 0.00 0.00 81 1012.2
20260905153716 29 107 0.0 0.0 0.00 0.00 0.00 82 1012.2
20260905153215 29 107 0.0 0.0 0.00 0.00 0.00 80 1012.2
20260905152714 28 71 0.0 0.0 0.00 0.00 0.00 81 1012.5
20260905152111 28 70 0.0 0.0 0.00 0.00 0.00 85 1012.5
20260905151610 28 114 0.0 0.0 0.00 0.00 0.00 84 1012.5
20260905151108 28 117 0.0 0.0 0.00 0.00 0.00 84 1012.5
20260905150502 28 135 0.0 0.0 0.00 0.00 0.00 86 1012.5
20260905150001 28 136 0.0 0.0 0.00 0.00 0.00 86 1012.5
20260905145429 27 136 0.0 0.0 0.00 0.00 0.00 85 1012.5
20260905144856 27 137 0.0 0.0 0.00 0.00 0.00 85 1012.5
20260905144251 27 136 0.0 0.0 0.00 0.00 0.00 86 1012.5
20260905143750 27 136 0.0 0.0 0.00 0.00 0.00 87 1012.5
20260905143248 27 136 0.0 0.0 0.00 0.00 0.00 86 1012.9
20260905142747 27 136 0.0 0.0 0.00 0.00 0.00 87 1012.9
20260905142144 27 88 0.0 0.0 0.00 0.00 0.00 88 1012.9
20260905141643 26 76 0.0 0.0 0.00 0.00 0.00 88 1012.9
20260905141111 26 87 0.0 0.0 0.00 0.00 0.00 90 1012.5
20260905140609 26 84 0.0 0.0 0.00 0.00 0.00 92 1012.9
20260905140108 26 118 0.0 0.0 0.00 0.00 0.00 95 1012.9
20260905135607 25 118 0.0 0.0 0.00 0.00 0.00 95 1012.9
20260905135003 25 120 0.0 0.0 0.00 0.00 0.00 95 1012.9
20260905134431 25 123 0.0 0.0 0.00 0.00 0.00 95 1012.9
20260905133930 25 127 0.0 0.0 0.00 0.00 0.00 95 1012.9
20260905133429 25 127 0.0 0.0 0.00 0.00 0.00 95 1012.9
20260905132927 25 128 0.0 0.0 0.00 0.00 0.00 95 1012.9
20260905132426 25 128 0.0 0.0 0.00 0.00 0.00 95 1012.9
20260905131925 25 128 0.0 0.0 0.00 0.00 0.00 95 1012.9
20260905131424 25 128 0.0 0.0 0.00 0.00 0.00 95 1013.2
20260905130924 24 128 0.0 0.0 0.00 0.00 0.00 95 1013.2
20260905130421 24 129 0.0 0.0 0.00 0.00 0.00 95 1012.9
20260905125847 24 129 0.0 0.0 0.00 0.00 0.00 95 1012.9
20260905125347 24 129 0.0 0.0 0.00 0.00 0.00 95 1013.2
20260905124846 24 58 0.0 0.0 0.00 0.00 0.00 95 1013.2
20260905124344 24 58 0.0 0.0 0.00 0.00 0.00 95 1013.2
20260905123843 24 58 0.0 0.0 0.00 0.00 0.00 95 1013.2
20260905123342 23 58 0.0 0.0 0.00 0.00 0.00 95 1013.2
20260905122841 23 58 0.0 0.0 0.00 0.00 0.00 95 1013.2
20260905122339 23 58 0.0 0.0 0.00 0.00 0.00 95 1013.2
20260905121838 23 58 0.0 0.0 0.00 0.00 0.00 95 1012.9
20260905121306 23 58 0.0 0.0 0.00 0.00 0.00 95 1012.9
20260905120805 23 58 0.0 0.0 0.00 0.00 0.00 95 1012.9
20260905120233 22 58 0.0 0.0 0.00 0.00 0.00 95 1012.9
20260905115732 22 58 0.0 0.0 0.00 0.00 0.00 95 1012.9
20260905115230 22 58 0.0 0.0 0.00 0.00 0.00 95 1012.9
20260905114729 22 58 0.0 0.0 0.00 0.00 0.00 95 1012.5
20260905114228 22 58 0.0 0.0 0.00 0.00 0.00 95 1012.5
20260905113727 22 58 0.0 0.0 0.00 0.00 0.00 95 1012.5
20260905113226 22 58 0.0 0.0 0.00 0.00 0.00 95 1012.5
20260905112725 22 58 0.0 0.0 0.00 0.00 0.00 95 1012.5
20260905112224 22 58 0.0 0.0 0.00 0.00 0.00 95 1012.2
20260905111723 22 58 0.0 0.0 0.00 0.00 0.00 95 1012.2
20260905111222 22 58 0.0 0.0 0.00 0.00 0.00 95 1012.2
20260905110720 22 58 0.0 0.0 0.00 0.00 0.00 95 1012.2
20260905110219 22 58 0.0 0.0 0.00 0.00 0.00 95 1012.2
20260905105645 22 58 0.0 0.0 0.00 0.00 0.00 95 1012.2
20260905105144 22 58 0.0 0.0 0.00 0.00 0.00 95 1012.2
20260905104643 22 58 0.0 0.0 0.00 0.00 0.00 95 1011.9
20260905104142 22 58 0.0 0.0 0.00 0.00 0.00 95 1012.2
20260905103640 22 58 0.0 0.0 0.00 0.00 0.00 95 1011.9
20260905103139 22 58 0.0 0.0 0.00 0.00 0.00 95 1011.9
20260905102638 22 58 0.0 0.0 0.00 0.00 0.00 95 1011.9
20260905102034 22 58 0.0 0.0 0.00 0.00 0.00 95 1011.9
20260905101501 22 58 0.0 0.0 0.00 0.00 0.00 95 1011.9
20260905100958 22 58 0.0 0.0 0.00 0.00 0.00 95 1011.9
20260905100458 22 58 0.0 0.0 0.00 0.00 0.00 95 1011.9
20260905095957 22 58 0.0 0.0 0.00 0.00 0.00 95 1011.5
20260905095456 22 58 0.0 0.0 0.00 0.00 0.00 95 1011.5
20260905094955 22 58 0.0 0.0 0.00 0.00 0.00 95 1011.5
20260905094454 22 58 0.0 0.0 0.00 0.00 0.00 95 1011.5
20260905093951 22 58 0.0 0.0 0.00 0.00 0.00 95 1011.2
20260905093450 22 58 0.0 0.0 0.00 0.00 0.00 95 1011.2
20260905092949 22 58 0.0 0.0 0.00 0.00 0.00 95 1011.5
20260905092417 22 58 0.0 0.0 0.00 0.00 0.00 95 1011.5
20260905091915 22 58 0.0 0.0 0.00 0.00 0.00 95 1011.5
20260905091414 22 58 0.0 0.0 0.00 0.00 0.00 95 1011.5
20260905090842 22 58 0.0 0.0 0.00 0.00 0.00 95 1011.5
20260905090341 22 58 0.0 0.0 0.00 0.00 0.00 95 1011.5
20260905085840 23 58 0.0 0.0 0.00 0.00 0.00 95 1011.5
20260905085306 23 58 0.0 0.0 0.00 0.00 0.00 95 1011.5
20260905084805 23 58 0.0 0.0 0.00 0.00 0.00 95 1011.5
20260905084304 23 58 0.0 0.0 0.00 0.00 0.00 95 1011.5
20260905083803 23 58 0.0 0.0 0.00 0.00 0.00 95 1011.5
20260905083302 23 58 0.0 0.0 0.00 0.00 0.00 95 1011.5
20260905082801 23 58 0.0 0.0 0.00 0.00 0.00 95 1011.5
20260905082300 23 58 0.0 0.0 0.00 0.00 0.00 95 1011.5
20260905081759 23 58 0.0 0.0 0.00 0.00 0.00 95 1011.5
20260905081153 23 58 0.0 0.0 0.00 0.00 0.00 95 1011.5
20260905080651 23 58 0.0 0.0 0.00 0.00 0.00 95 1011.5
20260905080150 23 58 0.0 0.0 0.00 0.00 0.00 95 1011.5
20260905075649 23 58 0.0 0.0 0.00 0.00 0.00 95 1011.5
20260905075116 23 58 0.0 0.0 0.00 0.00 0.00 95 1011.9
20260905074615 23 58 0.0 0.0 0.00 0.00 0.00 95 1011.9
20260905074114 23 58 0.0 0.0 0.00 0.00 0.00 95 1011.9
20260905073542 23 58 0.0 0.0 0.00 0.00 0.00 95 1011.9
20260905073041 23 58 0.0 0.0 0.00 0.00 0.00 95 1011.9
20260905072538 23 58 0.0 0.0 0.00 0.00 0.00 95 1011.9
20260905072036 23 58 0.0 0.0 0.00 0.00 0.00 95 1011.9
20260905071535 23 58 0.0 0.0 0.00 0.00 0.00 95 1011.9
20260905071034 23 58 0.0 0.0 0.00 0.00 0.00 95 1011.9
20260905070533 23 58 0.0 0.0 0.00 0.00 0.00 95 1011.9
20260905070032 23 58 0.0 0.0 0.00 0.00 0.00 95 1011.9
20260905065530 23 58 0.0 0.0 0.00 0.00 0.00 95 1011.9
20260905064959 23 58 0.0 0.0 0.00 0.00 0.00 95 1011.9
20260905064457 23 58 0.0 0.0 0.00 0.00 0.00 95 1011.9
20260905063957 23 58 0.0 0.0 0.00 0.00 0.00 95 1011.9
20260905063456 23 58 0.0 0.0 0.00 0.00 0.00 95 1011.9
20260905062954 23 58 0.0 0.0 0.00 0.00 0.00 95 1011.9
20260905062453 23 58 0.0 0.0 0.00 0.00 0.00 95 1011.9
20260905061952 23 58 0.0 0.0 0.00 0.00 0.00 95 1011.9
20260905061450 23 58 0.0 0.0 0.00 0.00 0.00 95 1011.9
20260905060949 23 58 0.0 0.0 0.00 0.00 0.00 95 1011.9
20260905060447 23 58 0.0 0.0 0.00 0.00 0.00 95 1011.9
20260905055946 23 58 0.0 0.0 0.00 0.00 0.00 95 1011.9
20260905055445 23 58 0.0 0.0 0.00 0.00 0.00 95 1012.2
20260905054944 23 58 0.0 0.0 0.00 0.00 0.00 95 1012.2
20260905054443 23 58 0.0 0.0 0.00 0.00 0.00 95 1012.2
20260905053911 23 58 0.0 0.0 0.00 0.00 0.00 95 1012.2
20260905053410 23 58 0.0 0.0 0.00 0.00 0.00 95 1012.2
20260905052909 23 58 0.0 0.0 0.00 0.00 0.00 95 1012.2
20260905052408 23 58 0.0 0.0 0.00 0.00 0.00 95 1012.2
20260905051907 23 58 0.0 0.0 0.00 0.00 0.00 95 1012.2
20260905051406 23 58 0.0 0.0 0.00 0.00 0.00 95 1012.2
20260905050905 23 58 0.0 0.0 0.00 0.00 0.00 95 1012.2
20260905050404 23 58 0.0 0.0 0.00 0.00 0.00 95 1012.2
20260905045903 23 58 0.0 0.0 0.00 0.00 0.00 95 1011.9
20260905045331 23 58 0.0 0.0 0.00 0.00 0.00 95 1012.2
20260905044830 23 58 0.0 0.0 0.00 0.00 0.00 95 1012.2
20260905044329 23 58 0.0 0.0 0.00 0.00 0.00 95 1012.2
20260905043828 23 58 0.0 0.0 0.00 0.00 0.00 95 1012.2
20260905043255 23 58 0.0 0.0 0.00 0.00 0.00 95 1012.2
20260905042754 23 58 0.0 0.0 0.00 0.00 0.00 94 1012.2
20260905042253 23 58 0.0 0.0 0.00 0.00 0.00 94 1012.2
20260905041752 23 58 0.0 0.0 0.00 0.00 0.00 94 1012.2
20260905041250 23 58 0.0 0.0 0.00 0.00 0.00 94 1012.2
20260905040748 23 58 0.0 0.0 0.00 0.00 0.00 94 1012.2
20260905040247 24 58 0.0 0.0 0.00 0.00 0.00 94 1012.2
20260905035746 24 58 0.0 0.0 0.00 0.00 0.00 94 1012.2
20260905035245 24 58 0.0 0.0 0.00 0.00 0.00 94 1012.2
20260905034744 24 58 0.0 0.0 0.00 0.00 0.00 94 1012.2
20260905034243 24 58 0.0 0.0 0.00 0.00 0.00 94 1011.9
20260905033741 24 58 0.0 0.0 0.00 0.00 0.00 94 1012.2
20260905033240 24 58 0.0 0.0 0.00 0.00 0.00 94 1012.2
20260905032738 24 58 0.0 0.0 0.00 0.00 0.00 94 1012.2
20260905032237 24 58 0.0 0.0 0.00 0.00 0.00 94 1012.5
20260905031736 24 58 0.0 0.0 0.00 0.00 0.00 94 1012.5
20260905031234 24 58 0.0 0.0 0.00 0.00 0.00 94 1012.5
20260905030733 24 58 0.0 0.0 0.00 0.00 0.00 94 1012.5
20260905030230 24 58 0.0 0.0 0.00 0.00 0.00 94 1012.5
20260905025729 24 58 0.0 0.0 0.00 0.00 0.00 94 1012.5
20260905025227 24 58 0.0 0.0 0.00 0.00 0.00 94 1012.5
20260905024726 24 58 0.0 0.0 0.00 0.00 0.00 93 1012.9
20260905024225 24 58 0.0 0.0 0.00 0.00 0.00 93 1012.5
20260905023652 25 58 0.0 0.0 0.00 0.00 0.00 93 1012.5
20260905023151 25 58 0.0 0.0 0.00 0.00 0.00 92 1012.5
20260905022649 25 58 0.0 0.0 0.00 0.00 0.00 92 1012.9
20260905022148 25 58 0.0 0.0 0.00 0.00 0.00 92 1012.9
20260905021647 25 58 0.0 0.0 0.00 0.00 0.00 91 1012.9
20260905021146 25 58 0.0 0.0 0.00 0.00 0.00 91 1012.9
20260905020644 25 56 0.0 0.0 0.00 0.00 0.00 91 1012.9
20260905020112 25 56 0.0 0.0 0.00 0.00 0.00 91 1012.9
20260905015609 25 56 0.0 0.0 0.00 0.00 0.00 92 1012.9
20260905015108 25 56 0.0 0.0 0.00 0.00 0.00 92 1012.9
20260905014607 25 56 0.0 0.0 0.00 0.00 0.00 92 1012.9
20260905014106 25 57 0.0 0.0 0.00 0.00 0.00 91 1012.9
20260905013605 25 57 0.0 0.0 0.00 0.00 0.00 92 1012.5
20260905013104 25 27 0.0 0.0 0.00 0.00 0.00 92 1012.5
20260905012602 25 27 0.0 0.0 0.00 0.00 0.00 91 1012.5
20260905012101 25 27 0.0 0.0 0.00 0.00 0.00 91 1012.5
20260905011559 25 27 0.0 0.0 0.00 0.00 0.00 91 1012.5
20260905011058 25 27 0.0 0.0 0.00 0.00 0.00 90 1012.5
20260905010557 25 25 0.0 0.0 0.00 0.00 0.00 90 1012.5
20260905010055 26 25 0.0 0.0 0.00 0.00 0.00 89 1012.5
20260905005522 26 26 0.0 0.0 0.00 0.00 0.00 89 1012.5
20260905005021 26 26 0.0 0.0 0.00 0.00 0.00 89 1012.5
20260905004521 26 25 0.0 0.0 0.00 0.00 0.00 89 1012.5
20260905004020 26 25 0.0 0.0 0.00 0.00 0.00 89 1012.5
20260905003518 26 25 0.0 0.0 0.00 0.00 0.00 88 1012.2
20260905003018 26 26 0.0 0.0 0.00 0.00 0.00 87 1012.2
20260905002516 27 25 0.0 0.0 0.00 0.00 0.00 88 1012.2
20260905002016 27 25 0.0 0.0 0.00 0.00 0.00 88 1012.2
20260905001514 27 25 0.0 0.0 0.00 0.00 0.00 90 1012.2
20260905001013 27 25 0.0 0.0 0.00 0.00 0.00 89 1012.2
20260905000512 27 25 0.0 0.0 0.00 0.00 0.00 89 1012.2
20260905000011 27 25 0.0 0.0 0.00 0.00 0.00 88 1012.2
20260904235510 28 26 0.0 0.0 0.00 0.00 0.00 88 1011.9
20260904235010 28 26 0.0 0.0 0.00 0.00 0.00 87 1012.2
20260904234508 28 25 0.0 0.0 0.00 0.00 0.00 87 1011.9
20260904234007 28 25 0.0 0.0 0.00 0.00 0.00 87 1012.2
20260904233505 28 25 0.0 0.0 0.00 0.00 0.00 87 1011.9
20260904232901 28 25 0.0 0.0 0.00 0.00 0.00 86 1011.9
20260904232359 28 25 0.0 0.0 0.00 0.00 0.00 86 1011.9
20260904231858 28 25 0.0 0.0 0.00 0.00 0.00 85 1011.9
20260904231356 29 26 0.0 0.0 0.00 0.00 0.00 84 1011.9
20260904230856 29 26 0.0 0.0 0.00 0.00 0.00 82 1011.9